[Iaude] MPEC H31: 2024 HM [a=0.96,e=0.19,i=13.7,H=24.1]

mpec at cfa.harvard.edu mpec at cfa.harvard.edu
Thu Apr 18 19:57:47 EDT 2024


M.P.E.C. 2024-H31                                Issued 2024 April 18, 23:56 UT

     The Minor Planet Electronic Circulars contain information on unusual
         minor planets, routine data on comets and natural satellites,
         and occasional editorial announcements.  They are published
    on behalf of Division F of the International Astronomical Union by the
          Minor Planet Center, Smithsonian Astrophysical Observatory,
                          Cambridge, MA 02138, U.S.A.
			  
             Prepared using the Tamkin Foundation Computer Network

                              MPC at CFA.HARVARD.EDU
            URL https://www.minorplanetcenter.net/    ISSN 1523-6714

                                    2024 HM                                     


Observations:
     K24H00M*1C2024 04 17.35116814 42 14.249-18 38 51.76         19.98GVEH031G96
     K24H00M 1C2024 04 17.35632114 42 11.657-18 39 15.98               VEH031G96
     K24H00M 1C2024 04 17.36147514 42 09.032-18 39 41.04         19.75GVEH031G96
     K24H00M 1C2024 04 17.36663114 42 06.318-18 40 05.95         19.65GVEH031G96
     K24H00M 1C2024 04 17.37295814 42 03.172-18 40 34.79         20.02GVEH031G96
     K24H00M 1C2024 04 17.37747314 42 00.781-18 40 57.36         20.29GVEH031G96
     K24H00M 1C2024 04 17.38197014 41 58.564-18 41 17.66         20.18GVEH031G96
     K24H00M 1C2024 04 17.38648314 41 56.216-18 41 39.19         20.11GVEH031G96
     K24H00M  C2024 04 17.42255614 41 37.623-18 44 29.44         20.3 GVEH031H01
     K24H00M  C2024 04 17.42681614 41 35.451-18 44 48.96         19.8 GVEH031H01
     K24H00M  C2024 04 17.43753614 41 30.032-18 45 38.85         20.1 GVEH031H01
     K24H00M KC2024 04 17.43863814 41 29.663-18 45 43.45         20.35GVEH031I52
     K24H00M KC2024 04 17.44466014 41 26.614-18 46 11.71         20.29GVEH031I52
     K24H00M  C2024 04 17.44579114 41 25.860-18 46 17.45         20.0 GVEH031H01
     K24H00M KC2024 04 17.45067514 41 23.575-18 46 39.50         20.38GVEH031I52
     K24H00M KC2024 04 17.45338514 41 22.204-18 46 51.92         20.26GVEH031I52
     K24H00M 0B2024 04 17.95856 14 37 21.713-19 25 24.24         20.2 VZEH031M49
     K24H00M 0B2024 04 17.97686 14 37 12.240-19 26 50.35         20.1 VZEH031M49
     K24H00M 0B2024 04 17.99677 14 37 01.901-19 28 23.34         20.4 VZEH031M49
     K24H00M |C2024 04 18.18534014 35 31.770-19 42 49.90         20.0 GVEH031807
     K24H00M |C2024 04 18.18864014 35 30.060-19 43 06.00         20.1 GVEH031807
     K24H00M |C2024 04 18.19195014 35 28.330-19 43 21.00         19.7 GVEH031807
     K24H00M KC2024 04 18.23462714 35 08.94 -19 47 54.6          20.0 GXEH031858
     K24H00M KC2024 04 18.24343714 35 04.45 -19 48 36.4          20.1 GXEH031858
     K24H00M KC2024 04 18.24409 14 35 04.47 -19 48 35.7          20.6 RVEH031691
     K24H00M KC2024 04 18.25211914 34 59.93 -19 49 16.9          19.8 GXEH031858
     K24H00M KC2024 04 18.26125114 34 53.84 -19 50 04.6          20.2 GVEH031H21
     K24H00M KC2024 04 18.26409814 34 52.39 -19 50 17.8          20.2 GVEH031H21
     K24H00M KC2024 04 18.26722214 34 50.78 -19 50 32.8          20.2 GVEH031H21
     K24H00M KC2024 04 18.28129 14 34 45.40 -19 51 30.8          20.4 RVEH031691
     K24H00M mC2024 04 18.30369014 34 33.762-19 53 15.43         20.13GVEH031I52
     K24H00M mC2024 04 18.30437114 34 33.467-19 53 17.52         19.78GVEH031I52
     K24H00M mC2024 04 18.30505314 34 33.110-19 53 21.16         20.18GVEH031I52
     K24H00M mC2024 04 18.30573314 34 32.740-19 53 25.04         20.11GVEH031I52
     K24H00M  C2024 04 18.47513414 33 08.692-20 06 15.37         20.28wXEH031F52
     K24H00M  C2024 04 18.48430114 33 03.909-20 06 57.32         20.35wXEH031F52
     K24H00M  C2024 04 18.49345514 32 59.139-20 07 39.29         20.27wXEH031F52
     K24H00M  C2024 04 18.50262014 32 54.352-20 08 21.10         20.29wXEH031F52
     K24H00M KC2024 04 18.94839514 29 19.08 -20 42 32.4          19.8 GXEH031I93
     K24H00M KC2024 04 18.96537714 29 10.23 -20 43 49.6          19.7 GXEH031I93
     K24H00M KC2024 04 18.98235314 29 01.55 -20 45 07.4          20.0 GXEH031I93

Observer details:
691 Steward Observatory, Kitt Peak-Spacewatch.  Observer A. F. Tubbiolo.
    0.9-m f/3 reflector + CCD.
807 Cerro Tololo Observatory, La Serena.  Observers T. Linder, R. Holmes.
    0.61-m f/6.8 Ritchey-Chretien + CCD.
858 Tebbutt Observatory, Edgewood.  Observer F. B. Zoltowski.  0.51-m f/8.1
    Schmidt-Cassegrain + CCD.
F52 Pan-STARRS 2, Haleakala.  Observers J. Herman, T. Lowe, P. Minguez, A.
    Schultz, I. Smith.  Measurers K. Chambers, T. de Boer, J. Fairlamb, H.
    Gao, M. Huber, C.-C. Lin, E. Magnier, Y. Ramanjooloo, R. Wainscoat, R.
    Weryk.  1.8-m Ritchey-Chretien + CCD.
G96 Mt. Lemmon Survey.  Observer G. J. Leonard.  Measurers T. Beuden, V. F.
    Carvajal, D. Fay, J. B. Fazekas, D. C. Fuls, A. R. Gibbs, A. D. Grauer, H.
    Groeller, J. K. Hogan, R. A. Kowalski, S. M. Larson, G. J. Leonard, D.
    Rankin, R. L. Seaman, F. C. Shelly, K. W. Wierzchos.  1.5-m reflector +
    10K CCD.
H01 Magdalena Ridge Observatory, Socorro.  Observers W. H. Ryan, E. V. Ryan.
    Measurer W. H. Ryan.  2.4-m f/8.9 Ritchey-Chretien + CCD.
H21 Astronomical Research Observatory, Westfield.  Observer R. Holmes.
    Measurers T. Linder, R. Holmes, L. Horn.  0.81-m f/4.0 astrograph + CCD.
I52 Steward Observatory, Mt. Lemmon Station.  Observers J. B. Fazekas, J. K.
    Hogan.  Measurers T. Beuden, V. F. Carvajal, D. Fay, J. B. Fazekas, D. C.
    Fuls, A. R. Gibbs, A. D. Grauer, H. Groeller, J. K. Hogan, R. A. Kowalski,
    S. M. Larson, G. J. Leonard, D. Rankin, R. L. Seaman, F. C. Shelly, K. W.
    Wierzchos.  1.0-m prime focus + CCD.
I93 St Pardon de Conques.  Observer F. Losse.  0.40-m f/3.7 reflector + CCD.
M49 IAS Remote Observatory, Hakos.  Observers D. Husar, M. Junius.  Measurer
    D. Husar.  0.25-m f/4.5 reflector + CMO.

Orbital elements:
2024 HM                                                  Earth MOID = 0.0940 AU
Epoch 2024 Mar. 31.0 TT = JDT 2460400.5                 MPC                     
M 123.32595              (2000.0)            P               Q                  
n   1.04700144     Peri.   28.52651     +0.55821849     -0.82220155             
a   0.9605158      Node    27.98095     +0.70906193     +0.40312128             
e   0.1856251      Incl.   13.71653     +0.43084022     +0.40184306             
P   0.94           H   24.10          G   0.15           U   7                  
Residuals in seconds of arc
240417 G96  0.3-  0.6+    240417 I52  0.1+  0.0     240418 H21  0.1+  0.3-
240417 G96  0.3+  0.8+    240417 I52  0.0   0.2+    240418 691  0.5-  0.7-
240417 G96  0.5+  0.2+    240417 M49  0.0   0.1+    240418 I52  0.5-  0.3-
240417 G96  0.6-  0.4-    240417 M49  0.0   0.2-    240418 I52  0.3+  0.8+
240417 G96  0.6+  0.7+    240417 M49  0.2-  0.2-    240418 I52  0.2+  0.4+
240417 G96  0.6-  0.6-    240418 807  0.1+  0.4+    240418 I52  0.1-  0.4-
240417 G96  0.5+  0.3+    240418 807  0.0   0.3-    240418 F52  0.1+  0.1-
240417 G96  0.1-  0.0     240418 807  0.3-  0.2+    240418 F52  0.2+  0.1-
240417 H01  0.1+  0.3-    240418 858  0.1+  0.0     240418 F52  0.3+  0.2-
240417 H01  0.1-  0.1+    240418 858  0.3+  0.3-    240418 F52  0.2+  0.2-
240417 H01  0.0   0.1+    240418 691  1.1-  0.4-    240418 I93  0.8+  0.5-
240417 I52  0.1-  0.0     240418 858  0.6-  0.0     240418 I93  0.9-  0.1+
240417 I52  0.0   0.2-    240418 H21  0.1-  0.2+    240418 I93  0.0   0.2-
240417 H01  0.1+  0.1-    240418 H21  0.1+  0.2+

Ephemeris:
2024 HM                  a,e,i = 0.96, 0.19, 14                  q = 0.7822
Date    TT    R. A. (2000) Decl.     Delta      r    Elong.  Phase     V
2024 03 19    16 58 04.5 +11 51 27   0.1699  1.0496   104.0    67.0    22.7
...
2024 04 03    16 13 51.4 -00 10 05   0.1282  1.0846   128.7    46.0    21.6
...
2024 04 11    15 29 22.0 -09 59 00   0.1138  1.1000   147.7    29.1    20.9
...
2024 04 17    14 45 03.2 -18 09 54   0.1107  1.1099   162.6    15.7    20.4
2024 04 18    14 37 00.9 -19 28 39   0.1109  1.1114   164.7    13.8    20.3
2024 04 19    14 28 52.1 -20 45 13   0.1114  1.1129   166.3    12.3    20.3
...
2024 04 25    13 39 45.6 -27 17 41   0.1190  1.1209   164.1    14.2    20.5
...
2024 05 03    12 42 55.8 -32 31 35   0.1397  1.1294   148.4    27.9    21.3
...
2024 05 18    11 43 05.2 -35 46 09   0.1963  1.1379   126.0    46.0    22.6

A. U. Tomatic                (C) Copyright 2024 MPC           M.P.E.C. 2024-H31





More information about the Iaude mailing list